Gewässerkundlicher Dienst Bayern

Monatsgrafik Ammerseeboje

Globalstrahlung vom 01.12.2023 bis zum 08.12.2023
Besonderheit an dieser Messstelle
Aufgrund der besonderen Lage direkt im Wasser sind bei einzelnen Parametern (z.B. Relative Luftfeuchte) andere Messergebnisse zu erwarten als bei einer vergleichbaren Station auf dem Land.
Die Erfassung der meteorologischen Daten geschieht teilweise unter anderen technischen Rahmenbedingungen als an den normalen Wetterstationen:

Lufttemperatur, Relative Luftfeuchte, Luftdruck
Die Messung erfolgt in etwa 1,8 m Höhe über dem Wasserspiegel.

Windgeschwindigkeit
Die Messung erfolgt in etwa 1,8 m Höhe über dem Wasserspiegel. Die Messergebnisse werden nicht auf eine andere Masthöhe extrapoliert.

Globalstrahlung
Der Spektralbereich der Messung erfasst Wellenlängen zwischen etwa 0,3 bis 1,1 µm. Aufgrund von Bewegungen der Boje (Störung der lotrechten Position) können die Messwerte beeinflusst sein.

weiterführende Fachinformationen

Globalstrahlung vom 01.12.2023 bis zum 08.12.2023
DatumGlobalstrahlung [W/m²]
08.12.2023 23:000,1
08.12.2023 22:000,1
08.12.2023 21:000,1
08.12.2023 20:000,1
08.12.2023 19:000,1
08.12.2023 18:000,1
08.12.2023 17:000,1
08.12.2023 16:003,3
08.12.2023 15:0026,8
08.12.2023 14:0049,5
08.12.2023 13:0060,0
08.12.2023 12:00104,0
08.12.2023 11:00117,5
08.12.2023 10:0069,2
08.12.2023 09:0042,2
08.12.2023 08:0013,5
08.12.2023 07:000,1
08.12.2023 06:000,1
08.12.2023 05:000,1
08.12.2023 04:000,1
08.12.2023 03:000,1
08.12.2023 02:000,1
08.12.2023 01:000,1
08.12.2023 00:000,1
07.12.2023 23:000,1
07.12.2023 22:000,1
07.12.2023 21:000,1
07.12.2023 20:000,1
07.12.2023 19:000,1
07.12.2023 18:000,1
07.12.2023 17:000,1
07.12.2023 16:0014,7
07.12.2023 15:0086,9
07.12.2023 14:00130,1
07.12.2023 13:00246,8
07.12.2023 12:00255,9
07.12.2023 11:00262,2
07.12.2023 10:00211,5
07.12.2023 09:00105,5
07.12.2023 08:0018,3
07.12.2023 07:000,3
07.12.2023 06:000,1
07.12.2023 05:000,1
07.12.2023 04:000,1
07.12.2023 03:000,1
07.12.2023 02:000,1
07.12.2023 01:000,1
07.12.2023 00:000,1
06.12.2023 23:000,1
06.12.2023 22:000,1
06.12.2023 21:000,1
06.12.2023 20:000,1
06.12.2023 19:000,1
06.12.2023 18:000,1
06.12.2023 17:000,1
06.12.2023 16:006,3
06.12.2023 15:0050,9
06.12.2023 14:0070,8
06.12.2023 13:00100,7
06.12.2023 12:00133,6
06.12.2023 11:00112,1
06.12.2023 10:0078,6
06.12.2023 09:0042,8
06.12.2023 08:0012,0
06.12.2023 07:000,2
06.12.2023 06:000,1
06.12.2023 05:000,1
06.12.2023 04:000,1
06.12.2023 03:000,1
06.12.2023 02:000,1
06.12.2023 01:000,1
06.12.2023 00:000,1
05.12.2023 23:000,1
05.12.2023 22:000,1
05.12.2023 21:000,1
05.12.2023 20:000,1
05.12.2023 19:000,1
05.12.2023 18:000,1
05.12.2023 17:000,1
05.12.2023 16:004,2
05.12.2023 15:0033,3
05.12.2023 14:0063,2
05.12.2023 13:0095,3
05.12.2023 12:00137,1
05.12.2023 11:00130,4
05.12.2023 10:00149,6
05.12.2023 09:0070,9
05.12.2023 08:0017,2
05.12.2023 07:000,2
05.12.2023 06:000,1
05.12.2023 05:000,1
05.12.2023 04:000,1
05.12.2023 03:000,1
05.12.2023 02:000,1
05.12.2023 01:000,1
05.12.2023 00:000,1
04.12.2023 23:000,1
04.12.2023 22:000,1
04.12.2023 21:000,1
04.12.2023 20:000,1
04.12.2023 19:000,1
04.12.2023 18:000,1
04.12.2023 17:000,1
04.12.2023 16:0010,6
04.12.2023 15:0064,5
04.12.2023 14:00136,8
04.12.2023 13:00130,3
04.12.2023 12:0095,3
04.12.2023 11:00103,0
04.12.2023 10:0062,1
04.12.2023 09:0028,6
04.12.2023 08:007,5
04.12.2023 07:000,1
04.12.2023 06:000,1
04.12.2023 05:000,1
04.12.2023 04:000,1
04.12.2023 03:000,1
04.12.2023 02:000,1
04.12.2023 01:000,1
04.12.2023 00:000,1
03.12.2023 23:000,1
03.12.2023 22:000,1
03.12.2023 21:000,1
03.12.2023 20:000,1
03.12.2023 19:000,1
03.12.2023 18:000,1
03.12.2023 17:000,1
03.12.2023 16:0019,1
03.12.2023 15:00113,1
03.12.2023 14:00200,8
03.12.2023 13:00242,8
03.12.2023 12:00244,9
03.12.2023 11:00221,2
03.12.2023 10:00141,6
03.12.2023 09:0087,8
03.12.2023 08:0025,8
03.12.2023 07:000,4
03.12.2023 06:000,1
03.12.2023 05:000,1
03.12.2023 04:000,1
03.12.2023 03:000,1
03.12.2023 02:000,1
03.12.2023 01:000,1
03.12.2023 00:000,1
02.12.2023 23:000,1
02.12.2023 22:000,1
02.12.2023 21:000,1
02.12.2023 20:000,1
02.12.2023 19:000,1
02.12.2023 18:000,1
02.12.2023 17:000,1
02.12.2023 16:001,9
02.12.2023 15:0020,1
02.12.2023 14:0039,9
02.12.2023 13:0052,3
02.12.2023 12:0064,8
02.12.2023 11:0080,8
02.12.2023 10:0042,6
02.12.2023 09:0022,3
02.12.2023 08:003,7
02.12.2023 07:000,1
02.12.2023 06:000,1
02.12.2023 05:000,1
02.12.2023 04:000,1
02.12.2023 03:000,1
02.12.2023 02:000,1
02.12.2023 01:000,1
02.12.2023 00:000,1
01.12.2023 23:000,1
01.12.2023 22:000,1
01.12.2023 21:000,1
01.12.2023 20:000,1
01.12.2023 19:000,1
01.12.2023 18:000,1
01.12.2023 17:000,1
01.12.2023 16:001,0
01.12.2023 15:009,6
01.12.2023 14:0025,2
01.12.2023 13:0047,2
01.12.2023 12:0055,9
01.12.2023 11:0039,1
01.12.2023 10:0049,7
01.12.2023 09:0016,7
01.12.2023 08:005,2
01.12.2023 07:000,1
01.12.2023 06:000,1
01.12.2023 05:000,1
01.12.2023 04:000,1
01.12.2023 03:000,1
01.12.2023 02:000,1
01.12.2023 01:000,1
01.12.2023 00:000,1
Ihre Auswahl wurde erfolgreich in den Download-Korb gelegt.